ASTERIA (43020 NORAD) Tracking and Keplerian Element Data

This shows tracking and keplerian element data for the satellite.

Feedback or suggestion? Click here.




ElementValue
Catalog43020
NameASTERIA
Epoch Orbit11304
Epoch Day316.94710939
Epoch Year2019
RAAN284.1183
Inclination51.6404
Eccentricity0.0001956
Argument of Perigee41.524
Mean Anonmoly318.5909
Mean Motion15.78097487
Decay Rate0.00054606
L11 43020U 98067NH 19316.94710939 .00054606 00000-0 31517-3 0 9992
L22 43020 51.6404 284.1183 0001956 41.5240 318.5909 15.78097487113045

Live tracking and technical data element details for ASTERIA (NORAD 43020). ASTERIA can be tracked NOW for your location showing map with azimuth and elevation plus other details from your city location.

Track the satellite on the map from your city or location and see movement details for azimuth, elevation, latitude, longitude, range, height, and movement on the map or in text.







IsCatalogInMostPopularTable: catalog: 43020, numindb: 354
Update: records affected: 1



GetName: 43020 ASTERIA

Hit Count: updated at: Wed, 13 Nov 2019 16:44:26 GMT